AirNav   Everest Fuels
 
 424 users online  

07KY Blue Lick Airport
Louisville, Kentucky, USA

GOING TO LOUISVILLE?


FAA INFORMATION EFFECTIVE 13 AUGUST 2020

Location

FAA Identifier: 07KY
Lat/Long: 38-04-50.2410N 085-41-35.8530W
38-04.837350N 085-41.597550W
38.0806225,-85.6932925
(estimated)
Elevation: 532 ft. / 162.2 m (surveyed)
Variation: 02W (1985)
From city: 9 miles SE of LOUISVILLE, KY
Time zone: UTC -4 (UTC -5 during Standard Time)
Zip code: 40229

Airport Operations

Airport use: Private use. Permission required prior to landing
Activation date: 09/1973
Control tower: no
ARTCC: INDIANAPOLIS CENTER
FSS: LOUISVILLE FLIGHT SERVICE STATION
Attendance: DAYLIGHT HOURS
Wind indicator: yes
Segmented circle: yes

Airport Communications

UNICOM: 122.8
WX ASOS at SDF (6 nm N): PHONE 502-367-1492
WX ASOS at LOU (9 nm N): PHONE 502-473-0693
WX AWOS-3 at JVY (17 nm N): 118.575 (812-246-1278)
WX AWOS-3 at BRY (18 nm SE): 119.925 (502-348-1867)

Nearby radio navigation aids

VOR radial/distance  VOR name  Freq  Var
IIUr255/5.6LOUISVILLE VORTAC114.8001E
FTKr053/16.8FORT KNOX VOR/DME109.6001W
EWOr357/26.9NEW HOPE VOR/DME110.8001E
MYSr068/(28.4)MYSTIC VOR108.2001W
FFTr264/(37.5)FRANKFORT VOR109.4003W

 
NDB name  Hdg/Dist  Freq  Var  ID
LAANG220/4.841404WLK .-.. -.-
GODMAN064/15.339603WGOI --. --- ..

Airport Services

Parking: hangars
Airframe service: NONE
Powerplant service: NONE
Bottled oxygen: NONE
Bulk oxygen: NONE

Runway Information

Runway 11/29

Dimensions: 2000 x 100 ft. / 610 x 30 m
Surface: turf
RUNWAY 11  RUNWAY 29
Traffic pattern: rightleft
Markings: NSTD, in good conditionNSTD, in good condition
Obstructions: trees, 450 ft. from runway, 25:1 slope to cleartrees, 1000 ft. from runway, 20:1 slope to clear

Airport Ownership and Management from official FAA records

Ownership: Privately-owned
Owner: THOMAS H. JEAN
1432 HILLVIEW BLVD
HILLVIEW, KY 40229
Phone 502-957-5159
ARPT RELATED CORRESPONDENCE TO ARPT MGR ONLY.
Manager: THOMAS H. JEAN
1432 HILLVIEW BLVD
HILLVIEW, KY 40229
Phone 502-957-5159

Airport Operational Statistics

Aircraft based on the field: 15
Single engine airplanes: 15
    
Aircraft operations: avg 24/week *
98% local general aviation
2% transient general aviation
* for 12-month period ending 14 December 1979

Additional Remarks

PLINES 90FT FROM RWY 29
FOR CD CTC LOUISVILLE APCH AT 502-375-7499

Instrument Procedures

There are no published instrument procedures at 07KY.

Some nearby airports with instrument procedures:

KSDF - Louisville Muhammad Ali International Airport (6 nm N)
KLOU - Bowman Field Airport (9 nm N)
KFTK - Godman Army Airfield (17 nm SW)
KJVY - Clark Regional Airport (17 nm N)
KBRY - Samuels Field Airport (18 nm SE)
 
Loc | Ops | Rwys | IFR | FBO | Links
Com | Nav | Svcs | Stats | Notes
Area around 07KY (Blue Lick Airport)
 
Road maps at: MapQuest Bing Google
 
Aerial photo
WARNING: Photo may not be current or correct
Aerial photo of 07KY (Blue Lick Airport)
Do you have a better or more recent aerial photo of Blue Lick Airport that you would like to share? If so, please send us your photo.

 
Sectional chart

 
Airport distance calculator
Flying to Blue Lick Airport? Find the distance to fly.

From to 07KY

Sunrise and sunset
Times for 15-Aug-2020
 Local
(UTC-4)
 Zulu
(UTC)
Morning civil twilight06:3210:32
Sunrise07:0011:00
Sunset20:3400:34
Evening civil twilight21:0201:02

Current date and time
Zulu (UTC)  15-Aug-2020 09:29:35
Local (UTC-4)  15-Aug-2020 05:29:35
 
METAR
KSDF 
6nm N 
150856Z 01006KT 10SM SCT110 23/20 A2989 RMK AO2 SLP118 T02280200 56003
KLOU 
8nm N 
150853Z AUTO 34004KT 10SM CLR 23/20 A2990 RMK AO2 SLP119 T02280200 56002
KJVY 
17nm N 
150015Z AUTO 00000KT 10SM CLR 25/23 A2994 RMK AO2 T02530228
KFTK 
18nm SW 
150856Z AUTO 33003KT 9SM FEW050 21/21 A2991 RMK AO2 SLP125 T02060206 58004
KBRY 
18nm SE 
150915Z AUTO 00000KT 5SM CLR 19/18 A2989 RMK AO1
TAF
KSDF 
6nm N 
150536Z 1506/1612 04004KT P6SM VCSH SCT030 BKN070 TEMPO 1511/1513 5SM BR SCT015 FM151300 36006KT P6SM BKN040 FM152000 35008KT P6SM SCT080 FM160200 35003KT P6SM SCT250
KFTK 
18nm SW 
150100Z 1501/1607 VRB06KT 8000 BR FEW015 QNH2992INS BECMG 1509/1510 VRB06KT 4800 BR BKN010 QNH2992INS TEMPO 1510/1512 3000 BR BKN005 BECMG 1512/1513 VRB06KT 9999 NSW OVC010 QNH2995INS BECMG 1516/1517 36012KT 9999 FEW030 QNH2989INS TEMPO 1518/1521 VRB10G15KT 8000 -TSRA SCT015 BKN030CB BECMG 1523/1524 VRB06KT 9999 SCT050 QNH2989INS TX30/1521Z TN20/1511Z
NOTAMs
Click for the latest NOTAMs
NOTAMs are issued by the DoD/FAA and will open in a separate window not controlled by AirNav.

 

 
 

Would you like to see your business listed on this page?

 If your business provides an interesting product or service to pilots, flight crews, aircraft, or users of the Blue Lick Airport, you should consider listing it here.  To start the listing process, click on the button below
 
Add a business
 

Other Pages about Blue Lick Airport

Update a link
 
Copyright © AirNav, LLC. All rights reserved. Privacy Policy  Contact